TimeCDT,TemperatureF,Dew PointF,Humidity,Sea Level PressureIn,VisibilityMPH,Wind Direction,Wind SpeedMPH,Gust SpeedMPH,PrecipitationIn,Events,Conditions,WindDirDegrees,DateUTC
12:53 AM,61.0,50.0,67,30.03,10.0,SSE,8.1,-,N/A,,Clear,150,2012-10-05 05:53:00
1:53 AM,61.0,50.0,67,30.01,10.0,SE,6.9,-,N/A,,Clear,140,2012-10-05 06:53:00
2:53 AM,63.0,50.0,63,30.00,10.0,SSE,10.4,-,N/A,,Clear,150,2012-10-05 07:53:00
3:53 AM,62.1,50.0,65,29.97,10.0,Calm,Calm,-,N/A,,Clear,0,2012-10-05 08:53:00
4:53 AM,57.0,51.1,81,29.98,10.0,East,5.8,-,N/A,,Clear,80,2012-10-05 09:53:00
5:53 AM,59.0,51.1,75,29.97,10.0,SE,3.5,-,N/A,,Clear,130,2012-10-05 10:53:00
6:53 AM,57.9,51.1,78,29.99,10.0,SSE,5.8,-,N/A,,Clear,150,2012-10-05 11:53:00
7:53 AM,55.9,50.0,80,30.01,10.0,West,5.8,-,N/A,,Clear,260,2012-10-05 12:53:00
8:53 AM,61.0,51.1,70,30.01,10.0,Calm,Calm,-,N/A,,Clear,0,2012-10-05 13:53:00
9:53 AM,66.9,52.0,59,30.01,10.0,SSW,4.6,-,N/A,,Clear,200,2012-10-05 14:53:00
10:53 AM,71.1,52.0,51,30.02,10.0,NW,4.6,-,N/A,,Clear,310,2012-10-05 15:53:00
11:53 AM,73.9,54.0,50,30.02,10.0,NW,6.9,-,N/A,,Clear,320,2012-10-05 16:53:00
12:53 PM,75.0,55.9,51,30.01,10.0,NNE,3.5,-,N/A,,Clear,20,2012-10-05 17:53:00
1:53 PM,79.0,54.0,42,29.97,10.0,Calm,Calm,-,N/A,,Clear,0,2012-10-05 18:53:00
2:53 PM,84.0,53.1,34,29.92,10.0,Calm,Calm,-,N/A,,Clear,0,2012-10-05 19:53:00
3:53 PM,88.0,48.9,26,29.89,10.0,NNE,3.5,-,N/A,,Clear,20,2012-10-05 20:53:00
4:53 PM,89.1,50.0,26,29.87,10.0,NNE,4.6,-,N/A,,Clear,30,2012-10-05 21:53:00
5:53 PM,88.0,46.9,24,29.86,10.0,ENE,6.9,-,N/A,,Clear,70,2012-10-05 22:53:00
6:53 PM,84.9,48.0,28,29.86,10.0,East,6.9,-,N/A,,Clear,80,2012-10-05 23:53:00
7:53 PM,82.0,55.9,41,29.87,10.0,SE,13.8,-,N/A,,Clear,130,2012-10-06 00:53:00
8:53 PM,78.1,57.9,50,29.88,10.0,SE,15.0,20.7,N/A,,Clear,140,2012-10-06 01:53:00
9:53 PM,75.9,60.1,58,29.88,10.0,SSE,16.1,-,N/A,,Clear,150,2012-10-06 02:53:00
10:53 PM,73.9,61.0,64,29.88,10.0,SSE,12.7,-,N/A,,Clear,150,2012-10-06 03:53:00
11:53 PM,73.0,59.0,61,29.87,10.0,SSE,12.7,-,N/A,,Clear,160,2012-10-06 04:53:00